Year,Month,Day,Hour,Minute,Value (Times are PST for temperature in C)
2008,11,30,00,00,9.60
2008,11,30,00,01,9.60
2008,11,30,00,02,9.60
2008,11,30,00,03,9.60
2008,11,30,00,04,9.60
2008,11,30,00,05,9.60
2008,11,30,00,06,9.60
2008,11,30,00,07,9.60
2008,11,30,00,08,9.60
2008,11,30,00,09,9.60
2008,11,30,00,10,9.60
2008,11,30,00,11,9.60
2008,11,30,00,12,9.60
2008,11,30,00,13,9.60
2008,11,30,00,14,9.60
2008,11,30,00,15,9.60
2008,11,30,00,16,9.60
2008,11,30,00,17,9.60
2008,11,30,00,18,9.60
2008,11,30,00,19,9.60
2008,11,30,00,20,9.60
2008,11,30,00,21,9.60
2008,11,30,00,22,9.60
2008,11,30,00,23,9.60
2008,11,30,00,24,9.60
2008,11,30,00,25,9.60
2008,11,30,00,26,9.60
2008,11,30,00,27,9.60
2008,11,30,00,28,9.60
2008,11,30,00,29,9.60
2008,11,30,00,30,9.60
2008,11,30,00,31,9.60
2008,11,30,00,32,9.70
2008,11,30,00,33,9.70
2008,11,30,00,34,9.70
2008,11,30,00,35,9.70
2008,11,30,00,36,9.70
2008,11,30,00,37,9.70
2008,11,30,00,38,9.70
2008,11,30,00,39,9.70
2008,11,30,00,40,9.70
2008,11,30,00,41,9.70
2008,11,30,00,42,9.70
2008,11,30,00,43,9.70
2008,11,30,00,44,9.70
2008,11,30,00,45,9.70
2008,11,30,00,46,9.70
2008,11,30,00,47,9.70
2008,11,30,00,48,9.70
2008,11,30,00,49,9.70
2008,11,30,00,50,9.70
2008,11,30,00,51,9.70
2008,11,30,00,52,9.70
2008,11,30,00,53,9.70
2008,11,30,00,54,9.70
2008,11,30,00,55,9.70
2008,11,30,00,56,9.70
2008,11,30,00,57,9.70
2008,11,30,00,58,9.70
2008,11,30,00,59,9.70
2008,11,30,01,00,9.60
2008,11,30,01,01,9.60
2008,11,30,01,02,9.60
2008,11,30,01,03,9.60
2008,11,30,01,04,9.60
2008,11,30,01,05,9.60
2008,11,30,01,06,9.60
2008,11,30,01,07,9.60
2008,11,30,01,08,9.60
2008,11,30,01,09,9.60
2008,11,30,01,10,9.60
2008,11,30,01,11,9.60
2008,11,30,01,12,9.60
2008,11,30,01,13,9.60
2008,11,30,01,14,9.60
2008,11,30,01,15,9.60
2008,11,30,01,16,9.60
2008,11,30,01,17,9.60
2008,11,30,01,18,9.60
2008,11,30,01,19,9.60
2008,11,30,01,20,9.60
2008,11,30,01,21,9.60
2008,11,30,01,22,9.60
2008,11,30,01,23,9.60
2008,11,30,01,24,9.60
2008,11,30,01,25,9.60
2008,11,30,01,26,9.60
2008,11,30,01,27,9.60
2008,11,30,01,28,9.60
2008,11,30,01,29,9.60
2008,11,30,01,30,9.60
2008,11,30,01,31,9.60
2008,11,30,01,32,9.60
2008,11,30,01,33,9.60
2008,11,30,01,34,9.60
2008,11,30,01,35,9.60
2008,11,30,01,36,9.60
2008,11,30,01,37,9.60
2008,11,30,01,38,9.60
2008,11,30,01,39,9.60
2008,11,30,01,40,9.60
2008,11,30,01,41,9.60
2008,11,30,01,42,9.60
2008,11,30,01,43,9.60
2008,11,30,01,44,9.50
2008,11,30,01,45,9.50
2008,11,30,01,46,9.50
2008,11,30,01,47,9.50
2008,11,30,01,48,9.50
2008,11,30,01,49,9.50
2008,11,30,01,50,9.50
2008,11,30,01,51,9.50
2008,11,30,01,52,9.50
2008,11,30,01,53,9.50
2008,11,30,01,54,9.50
2008,11,30,01,55,9.50
2008,11,30,01,56,9.50
2008,11,30,01,57,9.40
2008,11,30,01,58,9.40
2008,11,30,01,59,9.40
2008,11,30,02,00,9.40
2008,11,30,02,01,9.40
2008,11,30,02,02,9.40
2008,11,30,02,03,9.40
2008,11,30,02,04,9.40
2008,11,30,02,05,9.40
2008,11,30,02,06,9.40
2008,11,30,02,07,9.40
2008,11,30,02,08,9.40
2008,11,30,02,09,9.40
2008,11,30,02,10,9.40
2008,11,30,02,11,9.40
2008,11,30,02,12,9.40
2008,11,30,02,13,9.40
2008,11,30,02,14,9.40
2008,11,30,02,15,9.40
2008,11,30,02,16,9.40
2008,11,30,02,17,9.40
2008,11,30,02,18,9.40
2008,11,30,02,19,9.40
2008,11,30,02,20,9.40
2008,11,30,02,21,9.40
2008,11,30,02,22,9.40
2008,11,30,02,23,9.40
2008,11,30,02,24,9.40
2008,11,30,02,25,9.40
2008,11,30,02,26,9.40
2008,11,30,02,27,9.40
2008,11,30,02,28,9.40
2008,11,30,02,29,9.40
2008,11,30,02,30,9.40
2008,11,30,02,31,9.40
2008,11,30,02,32,9.40
2008,11,30,02,33,9.40
2008,11,30,02,34,9.40
2008,11,30,02,35,9.40
2008,11,30,02,36,9.40
2008,11,30,02,37,9.40
2008,11,30,02,38,9.40
2008,11,30,02,39,9.40
2008,11,30,02,40,9.40
2008,11,30,02,41,9.40
2008,11,30,02,42,9.40
2008,11,30,02,43,9.40
2008,11,30,02,44,9.40
2008,11,30,02,45,9.40
2008,11,30,02,46,9.40
2008,11,30,02,47,9.40
2008,11,30,02,48,9.40
2008,11,30,02,49,9.40
2008,11,30,02,50,9.40
2008,11,30,02,51,9.40
2008,11,30,02,52,9.40
2008,11,30,02,53,9.40
2008,11,30,02,54,9.40
2008,11,30,02,55,9.40
2008,11,30,02,56,9.40
2008,11,30,02,57,9.40
2008,11,30,02,58,9.40
2008,11,30,02,59,9.40
2008,11,30,03,00,9.40
2008,11,30,03,01,9.40
2008,11,30,03,02,9.40
2008,11,30,03,03,9.40
2008,11,30,03,04,9.40
2008,11,30,03,05,9.40
2008,11,30,03,06,9.40
2008,11,30,03,07,9.40
2008,11,30,03,08,9.40
2008,11,30,03,09,9.40
2008,11,30,03,10,9.40
2008,11,30,03,11,9.40
2008,11,30,03,12,9.40
2008,11,30,03,13,9.40
2008,11,30,03,14,9.40
2008,11,30,03,15,9.40
2008,11,30,03,16,9.40
2008,11,30,03,17,9.40
2008,11,30,03,18,9.40
2008,11,30,03,19,9.40
2008,11,30,03,20,9.40
2008,11,30,03,21,9.40
2008,11,30,03,22,9.40
2008,11,30,03,23,9.40
2008,11,30,03,24,9.40
2008,11,30,03,25,9.40
2008,11,30,03,26,9.40
2008,11,30,03,27,9.40
2008,11,30,03,28,9.40
2008,11,30,03,29,9.40
2008,11,30,03,30,9.40
2008,11,30,03,31,9.40
2008,11,30,03,32,9.40
2008,11,30,03,33,9.40
2008,11,30,03,34,9.40
2008,11,30,03,35,9.40
2008,11,30,03,36,9.40
2008,11,30,03,37,9.40
2008,11,30,03,38,9.40
2008,11,30,03,39,9.40
2008,11,30,03,40,9.40
2008,11,30,03,41,9.40
2008,11,30,03,42,9.40
2008,11,30,03,43,9.40
2008,11,30,03,44,9.40
2008,11,30,03,45,9.40
2008,11,30,03,46,9.40
2008,11,30,03,47,9.40
2008,11,30,03,48,9.40
2008,11,30,03,49,9.40
2008,11,30,03,50,9.40
2008,11,30,03,51,9.40
2008,11,30,03,52,9.40
2008,11,30,03,53,9.40
2008,11,30,03,54,9.40
2008,11,30,03,55,9.40
2008,11,30,03,56,9.40
2008,11,30,03,57,9.40
2008,11,30,03,58,9.40
2008,11,30,03,59,9.50
2008,11,30,04,00,9.50
2008,11,30,04,01,9.50
2008,11,30,04,02,9.60
2008,11,30,04,03,9.60
2008,11,30,04,04,9.60
2008,11,30,04,05,9.60
2008,11,30,04,06,9.60
2008,11,30,04,07,9.60
2008,11,30,04,08,9.60
2008,11,30,04,09,9.60
2008,11,30,04,10,9.60
2008,11,30,04,11,9.60
2008,11,30,04,12,9.60
2008,11,30,04,13,9.60
2008,11,30,04,14,9.50
2008,11,30,04,15,9.50
2008,11,30,04,16,9.50
2008,11,30,04,17,9.50
2008,11,30,04,18,9.50
2008,11,30,04,19,9.50
2008,11,30,04,20,9.40
2008,11,30,04,21,9.40
2008,11,30,04,22,9.40
2008,11,30,04,23,9.40
2008,11,30,04,24,9.40
2008,11,30,04,25,9.40
2008,11,30,04,26,9.40
2008,11,30,04,27,9.40
2008,11,30,04,28,9.40
2008,11,30,04,29,9.40
2008,11,30,04,30,9.40
2008,11,30,04,31,9.40
2008,11,30,04,32,9.40
2008,11,30,04,33,9.40
2008,11,30,04,34,9.40
2008,11,30,04,35,9.40
2008,11,30,04,36,9.40
2008,11,30,04,37,9.40
2008,11,30,04,38,9.40
2008,11,30,04,39,9.40
2008,11,30,04,40,9.40
2008,11,30,04,41,9.40
2008,11,30,04,42,9.40
2008,11,30,04,43,9.40
2008,11,30,04,44,9.40
2008,11,30,04,45,9.40
2008,11,30,04,46,9.40
2008,11,30,04,47,9.40
2008,11,30,04,48,9.40
2008,11,30,04,49,9.40
2008,11,30,04,50,9.40
2008,11,30,04,51,9.40
2008,11,30,04,52,9.40
2008,11,30,04,53,9.40
2008,11,30,04,54,9.40
2008,11,30,04,55,9.40
2008,11,30,04,56,9.40
2008,11,30,04,57,9.40
2008,11,30,04,58,9.40
2008,11,30,04,59,9.40
2008,11,30,05,00,9.40
2008,11,30,05,01,9.40
2008,11,30,05,02,9.40
2008,11,30,05,03,9.40
2008,11,30,05,04,9.40
2008,11,30,05,05,9.40
2008,11,30,05,06,9.40
2008,11,30,05,07,9.40
2008,11,30,05,08,9.40
2008,11,30,05,09,9.40
2008,11,30,05,10,9.40
2008,11,30,05,11,9.40
2008,11,30,05,12,9.40
2008,11,30,05,13,9.40
2008,11,30,05,14,9.40
2008,11,30,05,15,9.40
2008,11,30,05,16,9.40
2008,11,30,05,17,9.40
2008,11,30,05,18,9.40
2008,11,30,05,19,9.40
2008,11,30,05,20,9.40
2008,11,30,05,21,9.40
2008,11,30,05,22,9.40
2008,11,30,05,23,9.40
2008,11,30,05,24,9.40
2008,11,30,05,25,9.40
2008,11,30,05,26,9.40
2008,11,30,05,27,9.40
2008,11,30,05,28,9.40
2008,11,30,05,29,9.40
2008,11,30,05,30,9.40
2008,11,30,05,31,9.40
2008,11,30,05,32,9.40
2008,11,30,05,33,9.40
2008,11,30,05,34,9.40
2008,11,30,05,35,9.40
2008,11,30,05,36,9.40
2008,11,30,05,37,9.40
2008,11,30,05,38,9.40
2008,11,30,05,39,9.40
2008,11,30,05,40,9.40
2008,11,30,05,41,9.40
2008,11,30,05,42,9.40
2008,11,30,05,43,9.40
2008,11,30,05,44,9.40
2008,11,30,05,45,9.40
2008,11,30,05,46,9.40
2008,11,30,05,47,9.40
2008,11,30,05,48,9.40
2008,11,30,05,49,9.40
2008,11,30,05,50,9.40
2008,11,30,05,51,9.40
2008,11,30,05,52,9.40
2008,11,30,05,53,9.40
2008,11,30,05,54,9.40
2008,11,30,05,55,9.40
2008,11,30,05,56,9.40
2008,11,30,05,57,9.40
2008,11,30,05,58,9.40
2008,11,30,05,59,9.40
2008,11,30,06,00,9.40
2008,11,30,06,01,9.40
2008,11,30,06,02,9.40
2008,11,30,06,03,9.40
2008,11,30,06,04,9.40
2008,11,30,06,05,9.40
2008,11,30,06,06,9.40
2008,11,30,06,07,9.40
2008,11,30,06,08,9.40
2008,11,30,06,09,9.40
2008,11,30,06,10,9.40
2008,11,30,06,11,9.40
2008,11,30,06,12,9.40
2008,11,30,06,13,9.40
2008,11,30,06,14,9.40
2008,11,30,06,15,9.40
2008,11,30,06,16,9.40
2008,11,30,06,17,9.40
2008,11,30,06,18,9.40
2008,11,30,06,19,9.40
2008,11,30,06,20,9.40
2008,11,30,06,21,9.40
2008,11,30,06,22,9.40
2008,11,30,06,23,9.40
2008,11,30,06,24,9.30
2008,11,30,06,25,9.30
2008,11,30,06,26,9.30
2008,11,30,06,27,9.30
2008,11,30,06,28,9.30
2008,11,30,06,29,9.30
2008,11,30,06,30,9.30
2008,11,30,06,31,9.30
2008,11,30,06,32,9.30
2008,11,30,06,33,9.30
2008,11,30,06,34,9.40
2008,11,30,06,35,9.30
2008,11,30,06,36,9.30
2008,11,30,06,37,9.30
2008,11,30,06,38,9.30
2008,11,30,06,39,9.30
2008,11,30,06,40,9.30
2008,11,30,06,41,9.30
2008,11,30,06,42,9.30
2008,11,30,06,43,9.30
2008,11,30,06,44,9.30
2008,11,30,06,45,9.30
2008,11,30,06,46,9.30
2008,11,30,06,47,9.30
2008,11,30,06,48,9.30
2008,11,30,06,49,9.30
2008,11,30,06,50,9.30
2008,11,30,06,51,9.30
2008,11,30,06,52,9.30
2008,11,30,06,53,9.30
2008,11,30,06,54,9.30
2008,11,30,06,55,9.30
2008,11,30,06,56,9.30
2008,11,30,06,57,9.30
2008,11,30,06,58,9.30
2008,11,30,06,59,9.30
2008,11,30,07,00,9.30
2008,11,30,07,01,9.20
2008,11,30,07,02,9.20
2008,11,30,07,03,9.20
2008,11,30,07,04,9.20
2008,11,30,07,05,9.20
2008,11,30,07,06,9.20
2008,11,30,07,07,9.20
2008,11,30,07,08,9.30
2008,11,30,07,09,9.30
2008,11,30,07,10,9.30
2008,11,30,07,11,9.30
2008,11,30,07,12,9.30
2008,11,30,07,13,9.30
2008,11,30,07,14,9.30
2008,11,30,07,15,9.30
2008,11,30,07,16,9.30
2008,11,30,07,17,9.30
2008,11,30,07,18,9.30
2008,11,30,07,19,9.30
2008,11,30,07,20,9.30
2008,11,30,07,21,9.30
2008,11,30,07,22,9.30
2008,11,30,07,23,9.30
2008,11,30,07,24,9.30
2008,11,30,07,25,9.30
2008,11,30,07,26,9.30
2008,11,30,07,27,9.30
2008,11,30,07,28,9.30
2008,11,30,07,29,9.30
2008,11,30,07,30,9.30
2008,11,30,07,31,9.30
2008,11,30,07,32,9.30
2008,11,30,07,33,9.30
2008,11,30,07,34,9.30
2008,11,30,07,35,9.30
2008,11,30,07,36,9.30
2008,11,30,07,37,9.30
2008,11,30,07,38,9.30
2008,11,30,07,39,9.30
2008,11,30,07,40,9.30
2008,11,30,07,41,9.30
2008,11,30,07,42,9.30
2008,11,30,07,43,9.30
2008,11,30,07,44,9.30
2008,11,30,07,45,9.30
2008,11,30,07,46,9.30
2008,11,30,07,47,9.30
2008,11,30,07,48,9.40
2008,11,30,07,49,9.40
2008,11,30,07,50,9.40
2008,11,30,07,51,9.40
2008,11,30,07,52,9.40
2008,11,30,07,53,9.40
2008,11,30,07,54,9.40
2008,11,30,07,55,9.40
2008,11,30,07,56,9.40
2008,11,30,07,57,9.40
2008,11,30,07,58,9.40
2008,11,30,07,59,9.40
2008,11,30,08,00,9.40
2008,11,30,08,01,9.40
2008,11,30,08,02,9.40
2008,11,30,08,03,9.40
2008,11,30,08,04,9.40
2008,11,30,08,05,9.40
2008,11,30,08,06,9.40
2008,11,30,08,07,9.40
2008,11,30,08,08,9.40
2008,11,30,08,09,9.40
2008,11,30,08,10,9.40
2008,11,30,08,11,9.40
2008,11,30,08,12,9.40
2008,11,30,08,13,9.40
2008,11,30,08,14,9.40
2008,11,30,08,15,9.40
2008,11,30,08,16,9.40
2008,11,30,08,17,9.40
2008,11,30,08,18,9.40
2008,11,30,08,19,9.40
2008,11,30,08,20,9.40
2008,11,30,08,21,9.40
2008,11,30,08,22,9.40
2008,11,30,08,23,9.40
2008,11,30,08,24,9.40
2008,11,30,08,25,9.40
2008,11,30,08,26,9.40
2008,11,30,08,27,9.40
2008,11,30,08,28,9.40
2008,11,30,08,29,9.40
2008,11,30,08,30,9.40
2008,11,30,08,31,9.40
2008,11,30,08,32,9.40
2008,11,30,08,33,9.40
2008,11,30,08,34,9.40
2008,11,30,08,35,9.40
2008,11,30,08,36,9.40
2008,11,30,08,37,9.40
2008,11,30,08,38,9.40
2008,11,30,08,39,9.40
2008,11,30,08,40,9.40
2008,11,30,08,41,9.50
2008,11,30,08,42,9.50
2008,11,30,08,43,9.50
2008,11,30,08,44,9.50
2008,11,30,08,45,9.50
2008,11,30,08,46,9.50
2008,11,30,08,47,9.50
2008,11,30,08,48,9.50
2008,11,30,08,49,9.50
2008,11,30,08,50,9.50
2008,11,30,08,51,9.50
2008,11,30,08,52,9.60
2008,11,30,08,53,9.50
2008,11,30,08,54,9.50
2008,11,30,08,55,9.50
2008,11,30,08,56,9.50
2008,11,30,08,57,9.60
2008,11,30,08,58,9.60
2008,11,30,08,59,9.60
2008,11,30,09,00,9.60
2008,11,30,09,01,9.50
2008,11,30,09,02,9.50
2008,11,30,09,03,9.50
2008,11,30,09,04,9.60
2008,11,30,09,05,9.60
2008,11,30,09,06,9.60
2008,11,30,09,07,9.60
2008,11,30,09,08,9.60
2008,11,30,09,09,9.60
2008,11,30,09,10,9.60
2008,11,30,09,11,9.60
2008,11,30,09,12,9.60
2008,11,30,09,13,9.60
2008,11,30,09,14,9.60
2008,11,30,09,15,9.60
2008,11,30,09,16,9.60
2008,11,30,09,17,9.60
2008,11,30,09,18,9.60
2008,11,30,09,19,9.60
2008,11,30,09,20,9.60
2008,11,30,09,21,9.60
2008,11,30,09,22,9.60
2008,11,30,09,23,9.60
2008,11,30,09,24,9.60
2008,11,30,09,25,9.60
2008,11,30,09,26,9.60
2008,11,30,09,27,9.60
2008,11,30,09,28,9.60
2008,11,30,09,29,9.60
2008,11,30,09,30,9.60
2008,11,30,09,31,9.60
2008,11,30,09,32,9.60
2008,11,30,09,33,9.60
2008,11,30,09,34,9.60
2008,11,30,09,35,9.60
2008,11,30,09,36,9.60
2008,11,30,09,37,9.60
2008,11,30,09,38,9.60
2008,11,30,09,39,9.60
2008,11,30,09,40,9.60
2008,11,30,09,41,9.60
2008,11,30,09,42,9.60
2008,11,30,09,43,9.60
2008,11,30,09,44,9.60
2008,11,30,09,45,9.60
2008,11,30,09,46,9.60
2008,11,30,09,47,9.60
2008,11,30,09,48,9.60
2008,11,30,09,49,9.60
2008,11,30,09,50,9.60
2008,11,30,09,51,9.60
2008,11,30,09,52,9.60
2008,11,30,09,53,9.60
2008,11,30,09,54,9.60
2008,11,30,09,55,9.60
2008,11,30,09,56,9.60
2008,11,30,09,57,9.60
2008,11,30,09,58,9.70
2008,11,30,09,59,9.70
2008,11,30,10,00,9.70
2008,11,30,10,01,9.70
2008,11,30,10,02,9.70
2008,11,30,10,03,9.70
2008,11,30,10,04,9.70
2008,11,30,10,05,9.70
2008,11,30,10,06,9.70
2008,11,30,10,07,9.70
2008,11,30,10,08,9.70
2008,11,30,10,09,9.70
2008,11,30,10,10,9.70
2008,11,30,10,11,9.70
2008,11,30,10,12,9.70
2008,11,30,10,13,9.80
2008,11,30,10,14,9.80
2008,11,30,10,15,9.80
2008,11,30,10,16,9.80
2008,11,30,10,17,9.80
2008,11,30,10,18,9.80
2008,11,30,10,19,9.80
2008,11,30,10,20,9.80
2008,11,30,10,21,9.80
2008,11,30,10,22,9.80
2008,11,30,10,23,9.90
2008,11,30,10,24,9.90
2008,11,30,10,25,9.90
2008,11,30,10,26,9.90
2008,11,30,10,27,9.90
2008,11,30,10,28,9.90
2008,11,30,10,29,9.80
2008,11,30,10,30,9.80
2008,11,30,10,31,9.80
2008,11,30,10,32,9.80
2008,11,30,10,33,9.80
2008,11,30,10,34,9.90
2008,11,30,10,35,9.90
2008,11,30,10,36,9.90
2008,11,30,10,37,9.90
2008,11,30,10,38,9.90
2008,11,30,10,39,9.90
2008,11,30,10,40,9.90
2008,11,30,10,41,9.90
2008,11,30,10,42,9.90
2008,11,30,10,43,9.90
2008,11,30,10,44,9.80
2008,11,30,10,45,9.80
2008,11,30,10,46,9.80
2008,11,30,10,47,9.80
2008,11,30,10,48,9.80
2008,11,30,10,49,9.80
2008,11,30,10,50,9.80
2008,11,30,10,51,9.80
2008,11,30,10,52,9.80
2008,11,30,10,53,9.80
2008,11,30,10,54,9.80
2008,11,30,10,55,9.80
2008,11,30,10,56,9.80
2008,11,30,10,57,9.80
2008,11,30,10,58,9.80
2008,11,30,10,59,9.80
2008,11,30,11,00,9.70
2008,11,30,11,01,9.70
2008,11,30,11,02,9.70
2008,11,30,11,03,9.70
2008,11,30,11,04,9.70
2008,11,30,11,05,9.70
2008,11,30,11,06,9.70
2008,11,30,11,07,9.70
2008,11,30,11,08,9.70
2008,11,30,11,09,9.70
2008,11,30,11,10,9.70
2008,11,30,11,11,9.70
2008,11,30,11,12,9.70
2008,11,30,11,13,9.70
2008,11,30,11,14,9.70
2008,11,30,11,15,9.60
2008,11,30,11,16,9.60
2008,11,30,11,17,9.60
2008,11,30,11,18,9.60
2008,11,30,11,19,9.60
2008,11,30,11,20,9.60
2008,11,30,11,21,9.60
2008,11,30,11,22,9.70
2008,11,30,11,23,9.70
2008,11,30,11,24,9.70
2008,11,30,11,25,9.70
2008,11,30,11,26,9.70
2008,11,30,11,27,9.70
2008,11,30,11,28,9.70
2008,11,30,11,29,9.70
2008,11,30,11,30,9.70
2008,11,30,11,31,9.70
2008,11,30,11,32,9.80
2008,11,30,11,33,9.80
2008,11,30,11,34,9.80
2008,11,30,11,35,9.80
2008,11,30,11,36,9.80
2008,11,30,11,37,9.80
2008,11,30,11,38,9.80
2008,11,30,11,39,9.80
2008,11,30,11,40,9.80
2008,11,30,11,41,9.80
2008,11,30,11,42,9.80
2008,11,30,11,43,9.80
2008,11,30,11,44,9.80
2008,11,30,11,45,9.80
2008,11,30,11,46,9.80
2008,11,30,11,47,9.80
2008,11,30,11,48,9.80
2008,11,30,11,49,9.80
2008,11,30,11,50,9.80
2008,11,30,11,51,9.80
2008,11,30,11,52,9.80
2008,11,30,11,53,9.90
2008,11,30,11,54,9.90
2008,11,30,11,55,9.90
2008,11,30,11,56,9.90
2008,11,30,11,57,9.90
2008,11,30,11,58,9.90
2008,11,30,11,59,9.90
2008,11,30,12,00,9.90
2008,11,30,12,01,9.90
2008,11,30,12,02,9.90
2008,11,30,12,03,9.90
2008,11,30,12,04,9.80
2008,11,30,12,05,9.80
2008,11,30,12,06,9.80
2008,11,30,12,07,9.80
2008,11,30,12,08,9.80
2008,11,30,12,09,9.80
2008,11,30,12,10,9.90
2008,11,30,12,11,9.90
2008,11,30,12,12,9.90
2008,11,30,12,13,9.90
2008,11,30,12,14,9.90
2008,11,30,12,15,9.90
2008,11,30,12,16,9.80
2008,11,30,12,17,9.80
2008,11,30,12,18,9.80
2008,11,30,12,19,9.80
2008,11,30,12,20,9.80
2008,11,30,12,21,9.80
2008,11,30,12,22,9.80
2008,11,30,12,23,9.80
2008,11,30,12,24,9.80
2008,11,30,12,25,9.80
2008,11,30,12,26,9.80
2008,11,30,12,27,9.80
2008,11,30,12,28,9.70
2008,11,30,12,29,9.70
2008,11,30,12,30,9.70
2008,11,30,12,31,9.70
2008,11,30,12,32,9.70
2008,11,30,12,33,9.70
2008,11,30,12,34,9.70
2008,11,30,12,35,9.70
2008,11,30,12,36,9.70
2008,11,30,12,37,9.70
2008,11,30,12,38,9.80
2008,11,30,12,39,9.80
2008,11,30,12,40,9.80
2008,11,30,12,41,9.80
2008,11,30,12,42,9.80
2008,11,30,12,43,9.80
2008,11,30,12,44,9.80
2008,11,30,12,45,9.80
2008,11,30,12,46,9.80
2008,11,30,12,47,9.80
2008,11,30,12,48,9.80
2008,11,30,12,49,9.80
2008,11,30,12,50,9.80
2008,11,30,12,51,9.80
2008,11,30,12,52,9.80
2008,11,30,12,53,9.80
2008,11,30,12,54,9.80
2008,11,30,12,55,9.80
2008,11,30,12,56,9.80
2008,11,30,12,57,9.80
2008,11,30,12,58,9.80
2008,11,30,12,59,9.90
2008,11,30,13,00,9.90
2008,11,30,13,01,9.90
2008,11,30,13,02,9.90
2008,11,30,13,03,9.90
2008,11,30,13,04,9.90
2008,11,30,13,05,9.90
2008,11,30,13,06,9.90
2008,11,30,13,07,9.90
2008,11,30,13,08,9.90
2008,11,30,13,09,9.90
2008,11,30,13,10,9.90
2008,11,30,13,11,9.90
2008,11,30,13,12,9.90
2008,11,30,13,13,9.90
2008,11,30,13,14,9.90
2008,11,30,13,15,9.90
2008,11,30,13,16,9.90
2008,11,30,13,17,9.90
2008,11,30,13,18,9.90
2008,11,30,13,19,9.90
2008,11,30,13,20,9.90
2008,11,30,13,21,9.90
2008,11,30,13,22,9.90
2008,11,30,13,23,9.90
2008,11,30,13,24,9.80
2008,11,30,13,25,9.80
2008,11,30,13,26,9.80
2008,11,30,13,27,9.80
2008,11,30,13,28,9.80
2008,11,30,13,29,9.80
2008,11,30,13,30,9.80
2008,11,30,13,31,9.80
2008,11,30,13,32,9.80
2008,11,30,13,33,9.80
2008,11,30,13,34,9.80
2008,11,30,13,35,9.80
2008,11,30,13,36,9.80
2008,11,30,13,37,9.80
2008,11,30,13,38,9.80
2008,11,30,13,39,9.80
2008,11,30,13,40,9.80
2008,11,30,13,41,9.80
2008,11,30,13,42,9.80
2008,11,30,13,43,9.80
2008,11,30,13,44,9.80
2008,11,30,13,45,9.80
2008,11,30,13,46,9.80
2008,11,30,13,47,9.80
2008,11,30,13,48,9.80
2008,11,30,13,49,9.80
2008,11,30,13,50,9.80
2008,11,30,13,51,9.90
2008,11,30,13,52,9.90
2008,11,30,13,53,9.90
2008,11,30,13,54,9.90
2008,11,30,13,55,9.90
2008,11,30,13,56,9.90
2008,11,30,13,57,9.90
2008,11,30,13,58,9.90
2008,11,30,13,59,9.90
2008,11,30,14,00,9.90
2008,11,30,14,01,9.90
2008,11,30,14,02,9.90
2008,11,30,14,03,9.90
2008,11,30,14,04,9.90
2008,11,30,14,05,9.90
2008,11,30,14,06,9.90
2008,11,30,14,07,9.90
2008,11,30,14,08,9.90
2008,11,30,14,09,9.90
2008,11,30,14,10,9.90
2008,11,30,14,11,9.90
2008,11,30,14,12,9.90
2008,11,30,14,13,9.90
2008,11,30,14,14,9.90
2008,11,30,14,15,9.90
2008,11,30,14,16,9.90
2008,11,30,14,17,9.90
2008,11,30,14,18,9.90
2008,11,30,14,19,9.90
2008,11,30,14,20,9.90
2008,11,30,14,21,10.00
2008,11,30,14,22,10.00
2008,11,30,14,23,10.00
2008,11,30,14,24,10.00
2008,11,30,14,25,10.00
2008,11,30,14,26,10.00
2008,11,30,14,27,10.10
2008,11,30,14,28,10.10
2008,11,30,14,29,10.10
2008,11,30,14,30,10.10
2008,11,30,14,31,10.10
2008,11,30,14,32,10.10
2008,11,30,14,33,10.10
2008,11,30,14,34,10.10
2008,11,30,14,35,10.10
2008,11,30,14,36,10.20
2008,11,30,14,37,10.20
2008,11,30,14,38,10.20
2008,11,30,14,39,10.20
2008,11,30,14,40,10.20
2008,11,30,14,41,10.20
2008,11,30,14,42,10.20
2008,11,30,14,43,10.30
2008,11,30,14,44,10.30
2008,11,30,14,45,10.30
2008,11,30,14,46,10.30
2008,11,30,14,47,10.30
2008,11,30,14,48,10.30
2008,11,30,14,49,10.30
2008,11,30,14,50,10.30
2008,11,30,14,51,10.30
2008,11,30,14,52,10.30
2008,11,30,14,53,10.30
2008,11,30,14,54,10.30
2008,11,30,14,55,10.30
2008,11,30,14,56,10.30
2008,11,30,14,57,10.30
2008,11,30,14,58,10.30
2008,11,30,14,59,10.30
2008,11,30,15,00,10.30
2008,11,30,15,01,10.30
2008,11,30,15,02,10.40
2008,11,30,15,03,10.40
2008,11,30,15,04,10.40
2008,11,30,15,05,10.40
2008,11,30,15,06,10.40
2008,11,30,15,07,10.40
2008,11,30,15,08,10.40
2008,11,30,15,09,10.40
2008,11,30,15,10,10.40
2008,11,30,15,11,10.40
2008,11,30,15,12,10.40
2008,11,30,15,13,10.40
2008,11,30,15,14,10.40
2008,11,30,15,15,10.40
2008,11,30,15,16,10.40
2008,11,30,15,17,10.40
2008,11,30,15,18,10.40
2008,11,30,15,19,10.40
2008,11,30,15,20,10.40
2008,11,30,15,21,10.40
2008,11,30,15,22,10.40
2008,11,30,15,23,10.30
2008,11,30,15,24,10.30
2008,11,30,15,25,10.30
2008,11,30,15,26,10.30
2008,11,30,15,27,10.30
2008,11,30,15,28,10.30
2008,11,30,15,29,10.30
2008,11,30,15,30,10.30
2008,11,30,15,31,10.30
2008,11,30,15,32,10.30
2008,11,30,15,33,10.30
2008,11,30,15,34,10.30
2008,11,30,15,35,10.30
2008,11,30,15,36,10.30
2008,11,30,15,37,10.40
2008,11,30,15,38,10.40
2008,11,30,15,39,10.40
2008,11,30,15,40,10.40
2008,11,30,15,41,10.40
2008,11,30,15,42,10.40
2008,11,30,15,43,10.40
2008,11,30,15,44,10.40
2008,11,30,15,45,10.40
2008,11,30,15,46,10.40
2008,11,30,15,47,10.40
2008,11,30,15,48,10.40
2008,11,30,15,49,10.40
2008,11,30,15,50,10.40
2008,11,30,15,51,10.40
2008,11,30,15,52,10.40
2008,11,30,15,53,10.40
2008,11,30,15,54,10.40
2008,11,30,15,55,10.40
2008,11,30,15,56,10.40
2008,11,30,15,57,10.40
2008,11,30,15,58,10.40
2008,11,30,15,59,10.40
2008,11,30,16,00,10.40
2008,11,30,16,01,10.40
2008,11,30,16,02,10.40
2008,11,30,16,03,10.40
2008,11,30,16,04,10.40
2008,11,30,16,05,10.40
2008,11,30,16,06,10.40
2008,11,30,16,07,10.40
2008,11,30,16,08,10.40
2008,11,30,16,09,10.40
2008,11,30,16,10,10.40
2008,11,30,16,11,10.40
2008,11,30,16,12,10.40
2008,11,30,16,13,10.40
2008,11,30,16,14,10.40
2008,11,30,16,15,10.40
2008,11,30,16,16,10.40
2008,11,30,16,17,10.40
2008,11,30,16,18,10.40
2008,11,30,16,19,10.40
2008,11,30,16,20,10.40
2008,11,30,16,21,10.40
2008,11,30,16,22,10.40
2008,11,30,16,23,10.40
2008,11,30,16,24,10.30
2008,11,30,16,25,10.30
2008,11,30,16,26,10.30
2008,11,30,16,27,10.30
2008,11,30,16,28,10.30
2008,11,30,16,29,10.30
2008,11,30,16,30,10.30
2008,11,30,16,31,10.30
2008,11,30,16,32,10.30
2008,11,30,16,33,10.30
2008,11,30,16,34,10.30
2008,11,30,16,35,10.30
2008,11,30,16,36,10.30
2008,11,30,16,37,10.30
2008,11,30,16,38,10.30
2008,11,30,16,39,10.30
2008,11,30,16,40,10.30
2008,11,30,16,41,10.30
2008,11,30,16,42,10.30
2008,11,30,16,43,10.30
2008,11,30,16,44,10.30
2008,11,30,16,45,10.30
2008,11,30,16,46,10.30
2008,11,30,16,47,10.30
2008,11,30,16,48,10.30
2008,11,30,16,49,10.30
2008,11,30,16,50,10.30
2008,11,30,16,51,10.30
2008,11,30,16,52,10.30
2008,11,30,16,53,10.30
2008,11,30,16,54,10.30
2008,11,30,16,55,10.30
2008,11,30,16,56,10.30
2008,11,30,16,57,10.30
2008,11,30,16,58,10.30
2008,11,30,16,59,10.30
2008,11,30,17,00,10.30
2008,11,30,17,01,10.30
2008,11,30,17,02,10.30
2008,11,30,17,03,10.30
2008,11,30,17,04,10.30
2008,11,30,17,05,10.30
2008,11,30,17,06,10.30
2008,11,30,17,07,10.30
2008,11,30,17,08,10.30
2008,11,30,17,09,10.30
2008,11,30,17,10,10.30
2008,11,30,17,11,10.30
2008,11,30,17,12,10.30
2008,11,30,17,13,10.30
2008,11,30,17,14,10.30
2008,11,30,17,15,10.30
2008,11,30,17,16,10.30
2008,11,30,17,17,10.30
2008,11,30,17,18,10.30
2008,11,30,17,19,10.30
2008,11,30,17,20,10.30
2008,11,30,17,21,10.30
2008,11,30,17,22,10.30
2008,11,30,17,23,10.30
2008,11,30,17,24,10.20
2008,11,30,17,25,10.20
2008,11,30,17,26,10.20
2008,11,30,17,27,10.20
2008,11,30,17,28,10.20
2008,11,30,17,29,10.20
2008,11,30,17,30,10.20
2008,11,30,17,31,10.20
2008,11,30,17,32,10.20
2008,11,30,17,33,10.30
2008,11,30,17,34,10.30
2008,11,30,17,35,10.30
2008,11,30,17,36,10.30
2008,11,30,17,37,10.30
2008,11,30,17,38,10.30
2008,11,30,17,39,10.30
2008,11,30,17,40,10.30
2008,11,30,17,41,10.30
2008,11,30,17,42,10.30
2008,11,30,17,43,10.30
2008,11,30,17,44,10.30
2008,11,30,17,45,10.30
2008,11,30,17,46,10.30
2008,11,30,17,47,10.30
2008,11,30,17,48,10.30
2008,11,30,17,49,10.20
2008,11,30,17,50,10.30
2008,11,30,17,51,10.20
2008,11,30,17,52,10.20
2008,11,30,17,53,10.20
2008,11,30,17,54,10.20
2008,11,30,17,55,10.20
2008,11,30,17,56,10.20